Wind_Speed
27 31 23 21 24 25 27 28 26 24 27 22 20 19 18 18 8 7 10 10 10 14 17 18 17 14 14 15 16 17 17 18 18 19 21 22 23 24 25 27 29 31 33 38
27 23 21 28 22 22 26 26 24 23 24 22 18 17 10 8 8 8 11 11 14 17 21 21 19 16 16 16 17 19 19 18 19 19 21 23 25 25 25 28 31 32 38 39
24 18 27 23 18 18 19 20 22 24 23 23 22 21 15 11 9 10 8 9 14 16 20 22 18 16 15 17 18 19 19 19 18 19 22 24 26 27 28 31 31 35 40 38
26 19 23 23 21 23 26 25 24 27 29 27 27 26 25 19 14 10 11 12 14 16 19 21 13 10 13 16 17 17 18 17 18 19 21 22 25 29 30 31 33 40 38 38
22 21 23 24 21 23 21 21 24 26 29 28 26 29 24 25 23 17 18 18 17 18 17 19 12 15 17 19 19 18 18 18 18 19 21 24 27 29 30 33 39 38 37 38
27 24 23 23 23 22 22 23 24 27 27 31 22 28 26 25 24 21 15 14 20 20 19 16 12 14 13 13 15 18 19 18 18 19 23 25 27 30 35 39 36 34 36 37
24 25 23 23 22 21 20 22 26 29 29 29 26 31 29 27 21 16 13 15 20 21 17 13 10 13 14 15 17 20 21 19 18 21 24 27 29 35 33 29 32 33 34 33
28 28 25 23 22 23 26 26 27 32 32 29 26 29 25 21 21 18 19 16 20 20 17 14 14 14 16 20 22 23 23 23 22 24 27 29 34 30 31 31 32 32 29 29
32 30 25 25 25 28 27 29 26 30 29 28 28 29 23 21 21 17 14 16 17 19 18 18 19 20 22 24 27 28 27 26 25 25 27 31 34 30 30 31 29 27 27 28
33 33 29 30 30 29 28 26 28 28 31 29 26 23 19 15 16 17 19 20 20 22 25 24 25 25 27 27 26 27 26 25 26 28 32 33 28 29 29 28 25 25 26 26
33 34 32 31 31 27 28 26 27 28 29 29 27 22 19 19 18 18 19 21 21 22 23 25 27 29 28 25 26 25 25 29 33 26 22 23 26 26 27 25 24 25 25 28
31 34 31 30 30 30 30 28 27 28 23 26 26 17 16 20 21 19 19 22 23 23 24 28 31 30 25 27 25 26 27 22 17 17 20 22 23 25 23 22 22 24 27 30
33 37 36 34 31 27 25 23 23 24 27 26 28 16 15 22 24 24 23 24 26 30 31 30 31 32 33 29 24 23 20 17 17 19 20 21 23 22 22 20 21 24 27 32
36 39 38 35 28 23 26 23 25 28 28 25 22 22 18 24 25 25 25 27 28 29 29 26 23 22 21 20 19 17 15 17 18 19 20 21 21 21 20 20 22 25 29 33
39 40 38 35 29 30 30 30 29 29 25 27 19 22 22 24 22 24 25 25 25 24 24 24 21 19 19 17 14 13 15 16 17 18 20 21 21 20 20 21 24 28 32 35
39 41 40 39 33 33 34 31 32 30 25 24 23 21 27 28 25 24 22 23 25 27 26 22 17 14 13 13 13 14 14 16 17 17 18 19 20 20 21 23 27 31 35 38
43 40 40 40 35 34 38 33 27 25 25 22 25 20 23 25 24 21 21 22 23 23 21 17 14 12 13 13 14 13 14 16 16 16 18 19 21 23 24 26 30 33 36 40
46 44 41 41 37 42 34 28 28 27 24 23 22 17 23 22 23 24 22 21 19 20 19 17 14 14 13 14 14 14 15 16 15 17 19 20 23 25 26 27 31 34 37 41
49 46 46 45 42 40 38 31 28 28 24 25 22 20 23 24 24 24 23 20 18 16 17 17 16 15 15 14 14 15 16 17 17 19 20 23 26 27 27 29 33 36 39 42
53 52 51 50 47 44 40 33 31 32 32 21 23 25 26 26 22 26 26 21 18 16 18 18 18 17 15 14 15 16 17 19 19 21 22 24 27 29 30 32 36 39 42 44
59 57 54 53 51 46 45 38 35 37 30 21 29 30 27 25 25 28 26 25 20 19 20 20 20 18 15 15 16 17 18 19 21 22 23 26 28 30 32 34 38 41 44 46
60 63 61 59 57 52 47 43 38 35 33 26 32 33 28 25 24 27 26 27 24 21 22 23 21 19 17 17 17 18 20 21 21 22 25 27 30 31 33 36 39 43 45 48
64 62 64 65 62 54 51 48 42 37 38 32 36 36 30 27 24 28 27 27 25 25 24 23 23 21 19 19 18 19 21 22 22 23 25 28 31 33 35 37 40 43 47 50
63 61 64 63 59 57 58 55 48 37 38 36 38 38 31 29 27 28 29 28 27 26 26 24 23 23 22 21 20 20 21 23 24 25 27 29 32 34 36 38 41 44 48 51
59 57 62 65 62 59 55 57 53 43 39 39 36 38 34 33 29 30 30 30 29 27 26 24 24 24 24 23 23 22 22 24 25 26 27 30 33 36 38 39 42 45 48 53
53 46 49 62 61 59 55 56 53 48 41 41 39 37 35 31 30 29 29 30 30 29 27 24 24 25 24 24 25 24 25 25 26 26 27 30 34 38 40 42 43 46 49 53
Wind_Direction
254 256 262 262 255 263 265 269 267 270 271 277 279 279 269 268 282 296 290 301 296 273 259 256 256 254 257 268 274 278 285 292 299 299 298 299 300 304 306 307 309 312 316 319
254 260 257 251 255 260 264 270 272 270 268 274 278 271 262 265 289 295 304 295 301 294 265 258 258 260 268 275 278 281 287 292 294 296 297 298 300 302 305 307 310 314 321 319
256 245 242 249 251 260 261 266 271 269 265 262 264 261 253 253 268 280 278 285 285 287 284 268 264 268 268 277 282 282 285 288 291 293 296 299 302 304 307 306 314 319 320 316
258 246 248 258 261 260 267 260 265 268 271 262 260 256 267 268 265 257 258 251 282 278 274 273 271 300 276 270 272 277 279 282 287 293 298 301 302 303 305 313 318 318 316 315
256 246 248 255 262 263 265 263 263 267 268 266 263 266 260 267 268 265 258 258 267 250 262 261 272 294 291 277 278 281 282 286 294 299 302 301 301 305 310 313 315 315 314 318
251 252 251 255 258 261 264 265 264 262 264 265 275 274 274 274 275 278 274 258 255 263 261 260 281 287 284 281 283 286 289 295 302 305 301 301 306 307 308 310 310 312 318 319
257 256 251 252 256 255 262 254 260 263 264 271 272 275 279 276 283 281 270 261 254 260 262 261 271 274 276 284 289 293 293 296 298 299 300 300 304 310 310 310 314 318 318 319
248 247 249 249 251 251 248 251 262 270 268 276 277 276 287 285 284 277 268 259 257 259 261 267 271 271 281 287 293 298 298 299 307 304 298 299 310 310 313 317 316 318 320 324
251 251 247 249 247 248 250 252 256 263 269 273 273 275 293 274 277 266 257 249 255 257 258 274 273 274 282 293 297 298 298 300 295 291 292 300 309 312 315 312 317 319 321 325
253 250 244 243 245 245 252 252 255 263 270 273 274 274 276 286 272 253 249 251 257 255 257 270 275 275 277 287 291 290 289 291 290 289 291 299 304 307 311 316 318 319 323 328
248 250 245 246 247 249 253 255 257 259 267 273 275 270 269 269 277 260 259 261 261 261 264 268 267 272 281 276 280 290 285 291 293 291 293 297 301 309 314 314 316 322 327 329
243 250 250 246 245 245 248 252 254 261 268 269 268 264 264 254 258 262 262 264 268 266 261 262 267 272 272 274 277 283 288 288 301 301 297 301 308 311 310 311 318 324 325 328
241 247 252 248 247 249 255 262 263 260 257 264 265 274 257 257 257 263 263 262 264 271 271 273 272 269 268 271 275 281 277 287 294 297 302 307 308 306 306 313 320 319 329 330
236 243 248 251 252 245 246 251 249 253 260 271 269 263 259 251 259 267 271 276 279 278 277 275 269 265 262 270 277 272 280 289 295 301 306 306 303 305 309 315 317 326 329 330
238 242 248 251 249 247 242 243 251 256 262 265 266 269 263 261 261 270 279 278 273 264 260 263 265 262 269 270 267 276 283 290 297 302 305 306 308 309 311 316 327 328 329 329
236 242 245 248 245 245 248 242 244 255 266 271 268 267 263 266 271 277 272 262 261 260 263 267 266 263 258 260 268 273 285 293 296 299 304 309 310 312 316 323 327 329 331 331
238 239 242 244 246 246 244 247 249 250 256 262 264 265 267 268 266 270 268 265 261 267 266 260 251 249 253 263 270 277 286 293 295 299 307 311 313 316 321 324 328 330 330 330
238 242 242 243 242 241 245 250 252 249 252 262 268 262 267 271 268 266 266 264 258 254 256 255 254 254 258 261 265 276 283 295 295 303 310 315 316 318 320 324 325 328 328 328
239 241 245 246 244 243 243 240 248 251 245 255 260 260 267 268 262 266 265 263 259 257 254 254 256 257 259 261 267 278 287 297 297 305 312 315 319 321 320 321 323 325 326 328
236 238 240 245 245 241 243 243 242 249 248 260 263 257 261 263 270 265 263 264 265 262 256 256 256 255 260 266 274 284 292 300 301 305 311 316 319 320 319 321 323 324 327 328
231 233 238 244 246 242 248 244 240 246 253 247 254 255 259 264 261 259 263 265 258 257 258 254 256 260 265 273 280 288 296 301 302 302 309 313 316 320 321 323 325 327 326 326
230 232 236 238 244 242 247 252 247 253 255 242 251 257 258 260 260 260 255 257 253 250 254 253 257 261 266 272 282 291 294 299 303 306 312 315 317 318 321 324 325 326 326 326
231 230 233 239 242 246 253 255 255 252 255 246 248 254 255 258 259 256 254 255 256 252 251 253 256 260 264 270 280 287 290 294 302 306 313 317 319 320 321 323 324 326 328 328
232 230 233 235 239 241 244 249 249 247 256 249 242 246 247 249 249 253 258 256 255 257 253 253 253 258 264 269 276 281 287 291 298 303 309 315 320 322 321 321 323 327 329 329
228 232 230 232 236 237 239 245 247 245 250 253 245 248 247 249 247 248 253 255 258 261 260 258 257 259 264 267 272 279 284 291 297 302 309 313 318 322 322 323 323 326 329 330
219 223 232 233 236 237 239 241 244 246 244 240 241 245 247 247 245 245 250 251 254 258 261 262 265 266 269 271 274 281 286 291 296 304 311 316 320 323 324 324 324 326 329 329
Height
5830 5830 5836 5837 5837 5840 5840 5840 5840 5843 5840 5840 5839 5841 5843 5843 5842 5842 5843 5842 5842 5841 5839 5838 5838 5839 5840 5841 5841 5841 5841 5840 5839 5838 5836 5834 5832 5830 5827 5823 5820 5818 5815 5810
5826 5829 5830 5829 5832 5835 5834 5835 5838 5839 5838 5839 5838 5838 5840 5839 5839 5840 5840 5839 5840 5839 5836 5834 5835 5836 5837 5837 5837 5837 5836 5836 5835 5833 5831 5829 5826 5824 5822 5819 5815 5813 5809 5804
5822 5827 5824 5826 5828 5830 5830 5831 5833 5834 5834 5836 5835 5835 5835 5837 5837 5838 5838 5837 5837 5836 5833 5831 5830 5831 5832 5832 5832 5832 5831 5831 5830 5829 5826 5823 5820 5818 5815 5812 5810 5807 5802 5798
5817 5821 5822 5822 5823 5823 5825 5827 5827 5828 5828 5831 5830 5833 5830 5830 5834 5836 5836 5835 5835 5833 5830 5828 5827 5827 5827 5827 5827 5827 5826 5826 5825 5824 5822 5819 5815 5812 5809 5807 5804 5800 5795 5791
5815 5816 5817 5817 5820 5819 5820 5821 5821 5821 5821 5822 5824 5824 5828 5827 5829 5830 5831 5830 5829 5829 5828 5826 5824 5824 5823 5823 5822 5821 5821 5821 5820 5819 5817 5813 5810 5807 5804 5801 5798 5793 5789 5785
5808 5810 5812 5814 5815 5815 5816 5817 5816 5815 5816 5814 5821 5817 5821 5821 5823 5823 5824 5824 5824 5824 5825 5823 5821 5820 5819 5818 5817 5816 5815 5815 5815 5813 5810 5807 5805 5802 5799 5795 5791 5787 5783 5778
5804 5805 5807 5809 5810 5811 5812 5812 5810 5810 5810 5811 5813 5811 5814 5816 5817 5819 5819 5819 5819 5819 5819 5818 5818 5817 5816 5814 5813 5811 5810 5810 5809 5807 5804 5802 5800 5797 5792 5789 5785 5781 5776 5772
5797 5800 5802 5804 5806 5806 5806 5807 5806 5804 5805 5807 5806 5804 5808 5810 5811 5813 5814 5814 5814 5814 5814 5814 5813 5813 5811 5810 5808 5806 5804 5803 5802 5800 5798 5795 5793 5789 5786 5782 5778 5775 5771 5766
5790 5793 5798 5798 5799 5800 5802 5802 5804 5800 5800 5800 5801 5802 5803 5805 5806 5807 5808 5808 5808 5808 5808 5808 5808 5807 5805 5804 5802 5800 5797 5796 5796 5794 5792 5790 5786 5782 5779 5776 5772 5769 5765 5760
5785 5785 5789 5791 5791 5794 5795 5798 5797 5797 5794 5795 5795 5797 5799 5800 5799 5800 5801 5802 5802 5803 5803 5802 5801 5800 5799 5798 5797 5795 5793 5792 5791 5789 5786 5784 5780 5777 5773 5769 5766 5762 5758 5753
5776 5778 5783 5783 5786 5789 5790 5791 5792 5792 5790 5789 5789 5793 5794 5794 5793 5794 5795 5795 5795 5795 5796 5795 5794 5794 5794 5793 5792 5790 5787 5785 5783 5780 5779 5777 5775 5771 5767 5764 5760 5756 5751 5747
5769 5770 5773 5777 5778 5781 5782 5784 5785 5785 5788 5785 5783 5788 5788 5787 5787 5788 5789 5788 5788 5787 5788 5787 5785 5786 5786 5786 5785 5784 5782 5779 5777 5776 5774 5772 5769 5765 5762 5759 5755 5751 5746 5742
5761 5762 5766 5769 5772 5775 5778 5779 5780 5780 5780 5780 5779 5785 5783 5780 5781 5782 5782 5783 5782 5781 5780 5779 5777 5777 5778 5779 5778 5777 5776 5774 5773 5771 5769 5766 5763 5760 5757 5754 5750 5746 5740 5735
5751 5753 5756 5762 5768 5770 5770 5772 5773 5773 5774 5776 5776 5776 5778 5776 5776 5776 5777 5776 5775 5774 5772 5770 5769 5769 5770 5772 5772 5771 5771 5770 5768 5766 5764 5761 5758 5755 5752 5748 5745 5740 5734 5728
5742 5745 5749 5754 5760 5761 5762 5764 5766 5766 5769 5768 5773 5771 5771 5771 5770 5770 5770 5768 5767 5765 5764 5764 5764 5764 5765 5765 5766 5766 5766 5764 5762 5761 5759 5756 5753 5750 5746 5743 5738 5733 5727 5721
5734 5736 5740 5744 5749 5752 5754 5757 5757 5760 5763 5764 5765 5767 5764 5764 5765 5764 5762 5761 5760 5759 5758 5758 5758 5759 5760 5761 5761 5761 5760 5759 5757 5756 5754 5751 5748 5745 5741 5737 5732 5726 5720 5713
5726 5728 5731 5734 5740 5743 5743 5750 5754 5756 5757 5757 5757 5762 5760 5760 5759 5757 5756 5756 5756 5755 5755 5755 5755 5755 5756 5756 5756 5756 5755 5754 5753 5751 5749 5745 5742 5739 5735 5730 5725 5719 5713 5706
5717 5719 5722 5724 5730 5730 5738 5744 5746 5747 5750 5751 5752 5754 5754 5754 5754 5752 5751 5752 5752 5751 5751 5751 5751 5752 5752 5753 5752 5752 5751 5749 5748 5746 5743 5740 5737 5733 5729 5724 5719 5713 5707 5700
5708 5710 5713 5716 5720 5726 5727 5734 5739 5740 5744 5743 5745 5747 5747 5747 5748 5748 5746 5746 5746 5746 5746 5747 5747 5748 5748 5748 5748 5746 5745 5744 5743 5741 5738 5735 5731 5728 5723 5719 5714 5708 5701 5694
5695 5700 5703 5707 5710 5713 5720 5726 5730 5732 5733 5739 5739 5739 5739 5740 5743 5742 5739 5740 5740 5741 5741 5742 5743 5744 5743 5743 5742 5741 5740 5738 5737 5735 5732 5729 5726 5723 5718 5713 5708 5701 5695 5688
5683 5687 5692 5697 5700 5705 5709 5716 5721 5723 5731 5732 5729 5730 5732 5733 5735 5735 5736 5736 5735 5735 5736 5737 5738 5738 5738 5737 5736 5735 5733 5732 5731 5729 5726 5724 5721 5717 5711 5706 5701 5695 5688 5680
5672 5677 5680 5687 5690 5693 5702 5705 5713 5717 5718 5723 5720 5722 5726 5727 5729 5730 5731 5731 5731 5730 5731 5732 5732 5733 5733 5732 5731 5730 5729 5728 5726 5724 5721 5718 5714 5709 5704 5699 5693 5687 5680 5672
5656 5662 5667 5672 5680 5688 5692 5698 5702 5706 5707 5714 5713 5713 5718 5720 5722 5723 5725 5725 5725 5725 5725 5726 5726 5727 5727 5727 5726 5724 5724 5722 5720 5718 5714 5711 5706 5702 5697 5692 5686 5679 5672 5664
5640 5646 5654 5659 5667 5675 5680 5684 5689 5696 5698 5703 5704 5705 5710 5712 5714 5716 5718 5719 5720 5719 5720 5720 5720 5721 5721 5721 5720 5718 5717 5715 5713 5710 5707 5704 5699 5695 5690 5684 5678 5671 5663 5655
5628 5634 5640 5647 5652 5661 5668 5672 5678 5685 5689 5692 5695 5698 5701 5704 5707 5709 5711 5712 5713 5714 5714 5714 5714 5714 5715 5714 5712 5711 5710 5708 5706 5703 5700 5696 5692 5688 5682 5676 5669 5662 5655 5646
5616 5625 5627 5633 5641 5649 5656 5659 5667 5674 5678 5682 5684 5689 5692 5696 5698 5700 5703 5705 5707 5708 5708 5708 5708 5708 5708 5707 5706 5705 5703 5701 5698 5696 5693 5689 5685 5681 5675 5668 5661 5654 5646 5637